Regional Weather Roundup
Issued by NWS Sioux Falls, SD

Home | Current Version | Previous Version | Text Only | Print | Product List | Glossary Off
Versions: 1 2 3 4 5 6 7 8 9 10 11 12 13 14 15 16 17 18 19 20 21 22 23 24 25 26 27 28 29 30 31 32 33 34 35 36 37 38 39 40 41 42 43 44 45 46 47 48 49 50

000
ASUS43 KFSD 290602
RWRFSD

WEATHER ROUNDUP FOR SE SOUTH DAKOTA/SW MINNESOTA/NW IOWA
NATIONAL WEATHER SERVICE SIOUX FALLS SD
100 AM CDT TUE JUL 29 2014

NOTE: "FAIR" INDICATES FEW OR NO CLOUDS BELOW 12,000 FEET WITH NO
SIGNIFICANT WEATHER AND OR OBSTRUCTIONS TO VISIBILITY.


SDZ038>040-050-052>070-290700-
SOUTHEAST SOUTH DAKOTA

CITY           SKY/WX    TMP DP  RH WIND       PRES   REMARKS
CHAMBERLAIN    CLEAR     58  51  77 CALM      30.24S
6HR MIN TEMP:  55; 6HR MAX TEMP:  76;

HURON          CLEAR     53  50  89 CALM      30.22S
6HR MIN TEMP:  53; 6HR MAX TEMP:  74;

MADISON        FAIR      50  50 100 CALM      30.23S
MITCHELL       CLEAR     60  54  80 CALM      30.23S
6HR MIN TEMP:  60; 6HR MAX TEMP:  75;

SIOUX FALLS    CLEAR     56  54  93 CALM      30.22S
6HR MIN TEMP:  55; 6HR MAX TEMP:  72;

WINNER         FAIR      59  50  72 SE8       30.25S
YANKTON        CLEAR     59  54  82 NE3       30.22S
$$

MNZ071-072-080-081-089-090-097-098-290700-
SOUTHWEST MINNESOTA

CITY           SKY/WX    TMP DP  RH WIND       PRES   REMARKS
FAIRMONT       CLEAR     57  50  77 NW7       30.19S
JACKSON        CLEAR     55  50  82 W6        30.21S
LUVERNE        CLEAR     55  52  88 CALM      30.23S
MARSHALL       CLEAR     54  48  82 W8        30.20S
6HR MIN TEMP:  54; 6HR MAX TEMP:  72;

MONTEVIDEO     CLEAR     57  54  88 NW5       30.21S
PIPESTONE      CLEAR     55  52  88 CALM      30.23S
REDWOOD FALLS  CLEAR     58  53  84 W7        30.19R
TRACY          CLEAR     59  52  78 W6        30.22S
WINDOM         CLEAR     55  52  88 W5        30.21S
WORTHINGTON    CLEAR     54  48  82 NW5       30.23S
$$

IAZ001>003-012>014-020>022-031-032-NEZ013-014-SDZ071-290700-
NORTHWEST IOWA

CITY           SKY/WX    TMP DP  RH WIND       PRES   REMARKS
CHEROKEE       CLEAR     57  57 100 CALM      30.22R
DENISON        CLEAR     57  57 100 CALM      30.19R
ESTHERVILLE    CLEAR     56  53  90 NW7       30.20S
LE MARS        CLEAR     57  55  94 CALM      30.22S
ORANGE CITY    CLEAR     57  54  88 CALM      30.22S
SHELDON        CLEAR     52  50  93 CALM      30.21S
SIOUX CITY     PTCLDY    62  56  80 CALM      30.21S
6HR MIN TEMP:  59; 6HR MAX TEMP:  74;

SPENCER        CLEAR     52  50  93 NW5       30.21S
6HR MIN TEMP:  52; 6HR MAX TEMP:  71;

STORM LAKE     CLEAR     59  57  94 N7        30.22R
$$

ABBREVIATIONS USED IN REMARKS
   TC - TEMPERATURE IN CELSIUS
  WCI - WIND CHILL INDEX
   HX - HEAT INDEX
  VSB - VISIBILITY



USA.gov is the U.S. government's official web portal to all federal, state and local government web resources and services.